Hlavní strana
METAR-TAF:

METAR-TAF

Letiště :

Greenville, Jižní Karolína, Spojené státy americké

zeměpisná šířka: 34-45-30N, zeměpisná délka: 082-22-35W, výška: 291 m

Aktuální stav počasí

Zpráva byla vytvořena před 58 minutami, v 16:47 UTC
Severoseverovýchodní vítr 14 kt
Teplota 10°C
Vlhkost vzduchu 46%
Tlak 1021 hPa
Viditelnost: 16.1 km
Zataženo ve výšce 10000 ft

METAR: KGYH 151647Z 02014KT 10SM OVC100 10/M01 A3015

Čas: 12:45 (17:45 UTC)


TAF: chybějící

Stav a předpovědi počasí z více než 4 000 letišť (zprávy METAR a TAF).

Červené a žluté tečky na mapě představují dostupné meteorologické stanice.

Když kurzor umístíte na tečku, zobrazí se název stanice.

Pak kliknutím zobrazíte stav a předpověď počasí.

Chcete-li změnit mapu, kliknutím na zelené tlačítko se znaménkem +mapu přiblížíte, kliknutím na zelené tlačítko se znaménkem – mapu oddálíte a kliknutím na zelené šipky přejdete na sousední mapy.


METAR-TAF: